Weather in Kopanki

Ukraine / Ivano-Frankovsk District     49°04′55″N   24°23′19″E
temp.,
°C
wind,
m/s
gust,
m/s
humid.,
%
clouds,
%
prec.,
mm/h
press.,
hPa
HPBL,
m
14 april, wed
wed1400:00+3nw4588100 0.0 1018425
03:00+3nw3491100 0.1 1016360
06:00+2wnw4697100 1.1 1016291
09:00+1wnw4899100 4.1 1016244
12:00+1wnw51099100 2.8 1016350
15:00+1wnw61099100 5.1 1017423
18:00+1wnw61198100 0.8 1017428
21:000wnw61098100 1.0 1018556
15 april, thu
thu1500:000wnw5998100 0.1 1017600
03:000wnw5998100 0.2 1017638
06:000wnw51097100 0.0 1017683
09:00+1nw4997100 0.1 1018729
12:00+2nw5992100 0.1 1018712
15:00+4nw7982100 0.1 1018880
18:00+3nw71186100 0.0 1018751
21:00+1nw61293100 0.0 1019567
16 april, fri
fri1600:00+1nw51091100 0.0 1019713
03:00+1nw61089100 0.0 1019715
06:00+1wnw6118796 0.0 1018659
09:00+2nw7128164 0.0 1019749
12:00+6nw7106627 0.0 10181100
15:00+8wnw796088 0.0 10181511
18:00+7nw6969100 0.0 10191153
21:00+3nw488789 0.0 1020239
17 april, sat
sat1700:00+2nw379549 0.0 1021201
03:00+2wnw239064 0.0 102078
06:00+2wsw228971 0.0 102051
09:00+4w127598 0.0 1020253
12:00+7n116896 0.0 1020628
15:00+8nne327076 0.0 1020802
18:00+8nne337498 0.0 1019592
21:00+6nne2589100 0.0 1020146
18 april, sun
sun1800:00+6ne2286100 0.0 102045
03:00+6e2681100 0.0 1020204
06:00+4ese2486100 0.0 101972
09:00+7ese5877100 0.0 1019520
12:00+11ese7960100 0.0 10181584
15:00+10se61070100 0.2 10181338
18:00+8se5985100 0.9 10191070
21:00+7se4992100 3.0 1019995